Time,TemperatureF,DewpointF,PressureIn,WindDirection,WindDirectionDegrees,WindSpeedMPH,WindSpeedGustMPH,Humidity,HourlyPrecipIn,Conditions,Clouds,dailyrainin,SoftwareType,DateUTC
2013-06-20 00:01:00,64.1,63.5,30.19,SW,225,0.0,0.0,98,0.00,RA,,0.00,WeatherDisplay:10.37,2013-06-20 04:01:00,
2013-06-20 00:06:00,64.0,63.4,30.19,South,190,0.0,0.0,98,0.00,RA,,0.00,WeatherDisplay:10.37,2013-06-20 04:06:00,
2013-06-20 00:11:00,64.0,63.4,30.19,South,190,0.0,0.0,98,0.00,RA,,0.00,WeatherDisplay:10.37,2013-06-20 04:11:00,
2013-06-20 00:16:00,64.0,63.4,30.20,South,190,0.0,0.0,98,0.00,RA,,0.00,WeatherDisplay:10.37,2013-06-20 04:16:00,
2013-06-20 00:21:00,64.0,63.4,30.19,South,190,0.0,0.0,98,0.00,RA,,0.00,WeatherDisplay:10.37,2013-06-20 04:21:00,
2013-06-20 00:26:00,64.0,63.4,30.19,South,190,0.0,0.0,98,0.00,RA,,0.00,WeatherDisplay:10.37,2013-06-20 04:26:00,
2013-06-20 00:31:00,64.0,63.4,30.19,South,190,0.0,0.0,98,0.00,BKN,,0.00,WeatherDisplay:10.37,2013-06-20 04:31:00,
2013-06-20 00:36:00,64.1,63.5,30.19,South,190,0.0,0.0,98,0.00,BKN,,0.00,WeatherDisplay:10.37,2013-06-20 04:36:00,
2013-06-20 00:41:00,64.2,63.6,30.19,South,190,0.0,0.0,98,0.00,BKN,,0.00,WeatherDisplay:10.37,2013-06-20 04:41:00,
2013-06-20 00:46:00,64.2,63.6,30.20,South,190,0.0,0.0,98,0.00,BKN,,0.00,WeatherDisplay:10.37,2013-06-20 04:46:00,
2013-06-20 00:51:00,64.2,63.6,30.20,South,190,0.0,0.0,98,0.00,BKN,,0.00,WeatherDisplay:10.37,2013-06-20 04:51:00,
2013-06-20 00:56:00,64.2,63.6,30.20,South,190,0.0,0.0,98,0.00,BKN,,0.00,WeatherDisplay:10.37,2013-06-20 04:56:00,
2013-06-20 01:01:00,64.2,63.6,30.20,South,190,0.0,0.0,98,0.00,OVC,,0.00,WeatherDisplay:10.37,2013-06-20 05:01:00,
2013-06-20 01:06:00,64.1,63.5,30.20,South,190,0.0,0.0,98,0.00,OVC,,0.00,WeatherDisplay:10.37,2013-06-20 05:06:00,
2013-06-20 01:11:00,64.1,63.5,30.20,South,190,0.0,0.0,98,0.00,OVC,,0.00,WeatherDisplay:10.37,2013-06-20 05:11:00,
2013-06-20 01:16:00,64.1,63.5,30.20,South,190,0.0,0.0,98,0.00,OVC,,0.00,WeatherDisplay:10.37,2013-06-20 05:16:00,
2013-06-20 01:21:00,64.1,63.5,30.20,South,190,0.0,0.0,98,0.00,OVC,,0.00,WeatherDisplay:10.37,2013-06-20 05:21:00,
2013-06-20 01:26:00,64.1,63.5,30.20,South,190,0.0,0.0,98,0.00,OVC,,0.00,WeatherDisplay:10.37,2013-06-20 05:26:00,
2013-06-20 01:31:00,64.1,63.5,30.20,South,190,0.0,0.0,98,0.00,OVC,,0.00,WeatherDisplay:10.37,2013-06-20 05:31:00,
2013-06-20 01:36:00,64.1,63.5,30.20,South,190,0.0,0.0,98,0.00,OVC,,0.00,WeatherDisplay:10.37,2013-06-20 05:36:00,
2013-06-20 01:41:00,64.1,63.5,30.20,South,190,0.0,0.0,98,0.00,OVC,,0.00,WeatherDisplay:10.37,2013-06-20 05:41:00,
2013-06-20 01:46:00,64.0,63.4,30.19,South,190,0.0,0.0,98,0.00,OVC,,0.00,WeatherDisplay:10.37,2013-06-20 05:46:00,
2013-06-20 01:51:00,64.0,63.4,30.19,South,190,0.0,0.0,98,0.00,OVC,,0.00,WeatherDisplay:10.37,2013-06-20 05:51:00,
2013-06-20 01:56:00,63.9,63.3,30.20,South,190,0.0,0.0,98,0.00,OVC,,0.00,WeatherDisplay:10.37,2013-06-20 05:56:00,
2013-06-20 02:01:00,63.8,63.2,30.20,South,190,0.0,0.0,98,0.00,OVC,,0.00,WeatherDisplay:10.37,2013-06-20 06:01:00,
2013-06-20 02:06:00,63.7,63.1,30.20,South,190,0.0,0.0,98,0.00,OVC,,0.00,WeatherDisplay:10.37,2013-06-20 06:06:00,
2013-06-20 02:11:00,63.7,63.1,30.20,South,190,0.0,0.0,98,0.00,OVC,,0.00,WeatherDisplay:10.37,2013-06-20 06:11:00,
2013-06-20 02:16:00,63.7,63.1,30.20,South,190,0.0,0.0,98,0.00,OVC,,0.00,WeatherDisplay:10.37,2013-06-20 06:16:00,
2013-06-20 02:21:00,63.8,63.2,30.20,South,190,0.0,0.0,98,0.00,OVC,,0.00,WeatherDisplay:10.37,2013-06-20 06:21:00,
2013-06-20 02:26:00,63.9,63.3,30.20,South,190,0.0,0.0,98,0.00,OVC,,0.00,WeatherDisplay:10.37,2013-06-20 06:26:00,
2013-06-20 02:31:00,63.9,63.3,30.20,South,190,0.0,0.0,98,0.00,OVC,,0.00,WeatherDisplay:10.37,2013-06-20 06:31:00,
2013-06-20 02:36:00,63.9,63.3,30.20,South,190,0.0,0.0,98,0.00,OVC,,0.00,WeatherDisplay:10.37,2013-06-20 06:36:00,
2013-06-20 02:41:00,63.9,63.3,30.20,South,190,0.0,0.0,98,0.00,OVC,,0.00,WeatherDisplay:10.37,2013-06-20 06:41:00,
2013-06-20 02:46:00,63.8,63.2,30.20,South,190,0.0,0.0,98,0.00,OVC,,0.00,WeatherDisplay:10.37,2013-06-20 06:46:00,
2013-06-20 02:51:00,63.9,63.3,30.20,South,190,0.0,0.0,98,0.00,OVC,,0.00,WeatherDisplay:10.37,2013-06-20 06:51:00,
2013-06-20 02:56:00,63.9,63.6,30.20,South,190,0.0,0.0,99,0.00,OVC,,0.00,WeatherDisplay:10.37,2013-06-20 06:56:00,
2013-06-20 03:01:00,63.9,63.6,30.20,South,190,0.0,0.0,99,0.00,OVC,,0.00,WeatherDisplay:10.37,2013-06-20 07:01:00,
2013-06-20 03:06:00,64.0,63.7,30.20,South,190,0.0,0.0,99,0.00,OVC,,0.00,WeatherDisplay:10.37,2013-06-20 07:06:00,
2013-06-20 03:11:00,64.0,63.7,30.20,South,190,0.0,0.0,99,0.00,OVC,,0.00,WeatherDisplay:10.37,2013-06-20 07:11:00,
2013-06-20 03:16:00,64.1,63.8,30.20,South,190,0.0,0.0,99,0.00,OVC,,0.00,WeatherDisplay:10.37,2013-06-20 07:16:00,
2013-06-20 03:21:00,64.2,63.9,30.20,South,190,0.0,0.0,99,0.00,OVC,,0.00,WeatherDisplay:10.37,2013-06-20 07:21:00,
2013-06-20 03:26:00,64.2,63.9,30.20,South,190,0.0,0.0,99,0.00,OVC,,0.00,WeatherDisplay:10.37,2013-06-20 07:26:00,
2013-06-20 03:31:00,64.1,63.8,30.21,WSW,253,0.0,0.0,99,0.00,OVC,,0.00,WeatherDisplay:10.37,2013-06-20 07:31:00,
2013-06-20 03:36:00,64.1,63.8,30.21,WSW,252,0.0,0.0,99,0.00,OVC,,0.00,WeatherDisplay:10.37,2013-06-20 07:36:00,
2013-06-20 03:41:00,64.1,63.8,30.20,WSW,252,0.0,0.0,99,0.00,OVC,,0.00,WeatherDisplay:10.37,2013-06-20 07:41:00,
2013-06-20 03:46:00,64.0,63.4,30.21,WSW,252,0.0,0.0,98,0.00,OVC,,0.00,WeatherDisplay:10.37,2013-06-20 07:46:00,
2013-06-20 03:51:00,64.0,63.7,30.21,WSW,252,0.0,0.0,99,0.00,OVC,,0.00,WeatherDisplay:10.37,2013-06-20 07:51:00,
2013-06-20 03:56:00,64.1,63.8,30.21,WSW,251,0.0,0.0,99,0.00,OVC,,0.00,WeatherDisplay:10.37,2013-06-20 07:56:00,
2013-06-20 04:01:00,64.1,63.8,30.21,WSW,252,0.0,0.0,99,0.00,OVC,,0.00,WeatherDisplay:10.37,2013-06-20 08:01:00,
2013-06-20 04:06:00,64.1,63.8,30.21,WSW,252,0.0,0.0,99,0.00,OVC,,0.00,WeatherDisplay:10.37,2013-06-20 08:06:00,
2013-06-20 04:11:00,64.1,63.8,30.21,WSW,252,0.0,0.0,99,0.00,OVC,,0.00,WeatherDisplay:10.37,2013-06-20 08:11:00,
2013-06-20 04:16:00,64.2,63.9,30.21,WSW,252,0.0,0.0,99,0.00,OVC,,0.00,WeatherDisplay:10.37,2013-06-20 08:16:00,
2013-06-20 04:21:00,64.1,63.8,30.21,WSW,251,0.0,0.0,99,0.00,OVC,,0.00,WeatherDisplay:10.37,2013-06-20 08:21:00,
2013-06-20 04:26:00,64.2,63.9,30.21,WSW,251,0.0,0.0,99,0.00,OVC,,0.00,WeatherDisplay:10.37,2013-06-20 08:26:00,
2013-06-20 04:31:00,64.3,64.0,30.21,WSW,251,0.0,0.0,99,0.00,OVC,,0.00,WeatherDisplay:10.37,2013-06-20 08:31:00,
2013-06-20 04:36:00,64.3,64.0,30.22,WSW,251,0.0,0.0,99,0.00,OVC,,0.00,WeatherDisplay:10.37,2013-06-20 08:36:00,
2013-06-20 04:41:00,64.3,64.0,30.22,WSW,252,0.0,0.0,99,0.00,OVC,,0.00,WeatherDisplay:10.37,2013-06-20 08:41:00,
2013-06-20 04:46:00,64.2,63.9,30.22,WSW,252,0.0,0.0,99,0.00,OVC,,0.00,WeatherDisplay:10.37,2013-06-20 08:46:00,
2013-06-20 04:51:00,64.2,63.9,30.21,WSW,252,0.0,0.0,99,0.00,OVC,,0.00,WeatherDisplay:10.37,2013-06-20 08:51:00,
2013-06-20 04:56:00,64.1,63.8,30.22,WSW,252,0.0,0.0,99,0.00,OVC,,0.00,WeatherDisplay:10.37,2013-06-20 08:56:00,
2013-06-20 05:01:00,64.1,63.8,30.22,WSW,252,0.0,0.0,99,0.00,OVC,,0.00,WeatherDisplay:10.37,2013-06-20 09:01:00,
2013-06-20 05:06:00,63.9,63.6,30.22,WSW,252,0.0,0.0,99,0.00,OVC,,0.00,WeatherDisplay:10.37,2013-06-20 09:06:00,
2013-06-20 05:11:00,63.8,63.5,30.22,WSW,252,0.0,0.0,99,0.00,OVC,,0.00,WeatherDisplay:10.37,2013-06-20 09:11:00,
2013-06-20 05:16:00,63.7,63.4,30.22,WSW,252,0.0,0.0,99,0.00,OVC,,0.00,WeatherDisplay:10.37,2013-06-20 09:16:00,
2013-06-20 05:21:00,63.7,63.4,30.22,WSW,252,0.0,0.0,99,0.00,OVC,,0.00,WeatherDisplay:10.37,2013-06-20 09:21:00,
2013-06-20 05:26:00,63.9,63.6,30.23,WSW,251,0.0,0.0,99,0.00,OVC,,0.00,WeatherDisplay:10.37,2013-06-20 09:26:00,
2013-06-20 05:31:00,63.9,63.6,30.23,WSW,252,0.0,0.0,99,0.00,OVC,,0.00,WeatherDisplay:10.37,2013-06-20 09:31:00,
2013-06-20 05:36:00,64.0,63.7,30.23,WSW,251,0.0,0.0,99,0.00,OVC,,0.00,WeatherDisplay:10.37,2013-06-20 09:36:00,
2013-06-20 05:41:00,64.1,63.8,30.23,WSW,252,0.0,0.0,99,0.00,OVC,,0.00,WeatherDisplay:10.37,2013-06-20 09:41:00,
2013-06-20 05:46:00,64.2,63.9,30.23,WSW,252,0.0,0.0,99,0.00,OVC,,0.00,WeatherDisplay:10.37,2013-06-20 09:46:00,
2013-06-20 05:51:00,64.3,64.0,30.23,WSW,251,0.0,0.0,99,0.00,OVC,,0.00,WeatherDisplay:10.37,2013-06-20 09:51:00,
2013-06-20 05:56:00,64.3,64.0,30.23,WSW,251,0.0,0.0,99,0.00,OVC,,0.00,WeatherDisplay:10.37,2013-06-20 09:56:00,
2013-06-20 06:01:00,64.3,64.0,30.23,WSW,252,0.0,0.0,99,0.00,BKN,,0.00,WeatherDisplay:10.37,2013-06-20 10:01:00,
2013-06-20 06:06:00,64.3,64.0,30.24,WSW,252,0.0,0.0,99,0.00,BKN,,0.00,WeatherDisplay:10.37,2013-06-20 10:06:00,
2013-06-20 06:11:00,64.3,64.0,30.24,WSW,252,0.0,0.0,99,0.00,BKN,,0.00,WeatherDisplay:10.37,2013-06-20 10:11:00,
2013-06-20 06:16:00,64.4,64.1,30.24,WSW,252,0.0,0.0,99,0.00,BKN,,0.00,WeatherDisplay:10.37,2013-06-20 10:16:00,
2013-06-20 06:21:00,64.4,64.1,30.24,WSW,253,0.0,0.0,99,0.00,BKN,,0.00,WeatherDisplay:10.37,2013-06-20 10:21:00,
2013-06-20 06:26:00,64.5,64.2,30.24,WSW,253,0.0,0.0,99,0.00,BKN,,0.00,WeatherDisplay:10.37,2013-06-20 10:26:00,
2013-06-20 06:31:00,64.6,64.3,30.24,WSW,253,0.0,0.0,99,0.00,BKN,,0.00,WeatherDisplay:10.37,2013-06-20 10:31:00,
2013-06-20 06:36:00,64.7,64.4,30.24,WSW,253,0.0,0.0,99,0.00,BKN,,0.00,WeatherDisplay:10.37,2013-06-20 10:36:00,
2013-06-20 06:41:00,64.8,64.5,30.25,WSW,253,0.0,0.0,99,0.00,BKN,,0.00,WeatherDisplay:10.37,2013-06-20 10:41:00,
2013-06-20 06:46:00,64.9,64.6,30.24,WSW,253,0.0,0.0,99,0.00,OVC,,0.00,WeatherDisplay:10.37,2013-06-20 10:46:00,
2013-06-20 06:51:00,65.0,64.7,30.25,WSW,254,0.0,0.0,99,0.00,OVC,,0.00,WeatherDisplay:10.37,2013-06-20 10:51:00,
2013-06-20 06:56:00,65.0,64.7,30.25,WSW,253,0.0,0.0,99,0.00,OVC,,0.00,WeatherDisplay:10.37,2013-06-20 10:56:00,
2013-06-20 07:01:00,65.1,64.8,30.25,WSW,253,0.0,0.0,99,0.00,OVC,,0.00,WeatherDisplay:10.37,2013-06-20 11:01:00,
2013-06-20 07:06:00,65.2,64.9,30.25,WSW,253,0.0,0.0,99,0.00,OVC,,0.00,WeatherDisplay:10.37,2013-06-20 11:06:00,
2013-06-20 07:11:00,65.2,64.9,30.25,WSW,253,0.0,0.0,99,0.00,OVC,,0.00,WeatherDisplay:10.37,2013-06-20 11:11:00,
2013-06-20 07:16:00,65.3,65.0,30.25,WSW,253,0.0,0.0,99,0.00,OVC,,0.00,WeatherDisplay:10.37,2013-06-20 11:16:00,
2013-06-20 07:21:00,65.4,65.1,30.25,WSW,253,0.0,0.0,99,0.00,OVC,,0.00,WeatherDisplay:10.37,2013-06-20 11:21:00,
2013-06-20 07:26:00,65.6,65.3,30.26,WSW,253,0.0,0.0,99,0.00,OVC,,0.00,WeatherDisplay:10.37,2013-06-20 11:26:00,
2013-06-20 07:31:00,65.8,65.5,30.26,WSW,253,0.0,0.0,99,0.00,OVC,,0.00,WeatherDisplay:10.37,2013-06-20 11:31:00,
2013-06-20 07:36:00,65.9,65.6,30.26,WSW,253,0.0,0.0,99,0.00,OVC,,0.00,WeatherDisplay:10.37,2013-06-20 11:36:00,
2013-06-20 07:41:00,65.9,65.6,30.26,WSW,253,0.0,0.0,99,0.00,OVC,,0.00,WeatherDisplay:10.37,2013-06-20 11:41:00,
2013-06-20 07:46:00,66.0,65.7,30.26,WSW,253,0.0,0.0,99,0.00,OVC,,0.00,WeatherDisplay:10.37,2013-06-20 11:46:00,
2013-06-20 07:51:00,66.2,65.9,30.26,WSW,253,0.0,0.0,99,0.00,OVC,,0.00,WeatherDisplay:10.37,2013-06-20 11:51:00,
2013-06-20 07:56:00,66.3,66.0,30.26,WSW,253,0.0,0.0,99,0.00,OVC,,0.00,WeatherDisplay:10.37,2013-06-20 11:56:00,
2013-06-20 08:01:00,66.4,66.1,30.27,WSW,253,0.0,0.0,99,0.00,OVC,,0.00,WeatherDisplay:10.37,2013-06-20 12:01:00,
2013-06-20 08:06:00,66.5,66.2,30.27,WSW,253,0.0,0.0,99,0.00,OVC,,0.00,WeatherDisplay:10.37,2013-06-20 12:06:00,
2013-06-20 08:11:00,66.7,66.4,30.27,WSW,253,0.0,0.0,99,0.00,OVC,,0.00,WeatherDisplay:10.37,2013-06-20 12:11:00,
2013-06-20 08:16:00,66.7,66.4,30.27,WNW,286,0.0,1.2,99,0.00,OVC,,0.00,WeatherDisplay:10.37,2013-06-20 12:16:00,
2013-06-20 08:21:00,66.8,66.5,30.27,WNW,286,0.0,0.0,99,0.00,OVC,,0.00,WeatherDisplay:10.37,2013-06-20 12:21:00,
2013-06-20 08:26:00,67.0,66.7,30.27,WNW,287,0.0,1.2,99,0.00,OVC,,0.00,WeatherDisplay:10.37,2013-06-20 12:26:00,
2013-06-20 08:31:00,67.1,66.8,30.27,WNW,287,0.0,0.0,99,0.00,OVC,,0.00,WeatherDisplay:10.37,2013-06-20 12:31:00,
2013-06-20 08:36:00,67.1,66.5,30.27,NNW,333,0.0,0.0,98,0.00,OVC,,0.00,WeatherDisplay:10.37,2013-06-20 12:36:00,
2013-06-20 08:41:00,67.2,66.6,30.28,North,6,0.0,0.0,98,0.00,OVC,,0.00,WeatherDisplay:10.37,2013-06-20 12:41:00,
2013-06-20 08:46:00,67.4,66.8,30.28,NNE,23,0.0,0.0,98,0.00,OVC,,0.00,WeatherDisplay:10.37,2013-06-20 12:46:00,
2013-06-20 08:51:00,67.4,66.5,30.28,South,172,0.0,1.2,97,0.00,OVC,,0.00,WeatherDisplay:10.37,2013-06-20 12:51:00,
2013-06-20 08:56:00,67.5,66.6,30.28,SSW,200,0.0,0.0,97,0.00,OVC,,0.00,WeatherDisplay:10.37,2013-06-20 12:56:00,
2013-06-20 09:01:00,67.6,66.7,30.28,NNE,13,0.0,0.0,97,0.00,OVC,,0.00,WeatherDisplay:10.37,2013-06-20 13:01:00,
2013-06-20 09:06:00,67.7,66.8,30.28,North,356,0.0,1.2,97,0.00,OVC,,0.00,WeatherDisplay:10.37,2013-06-20 13:06:00,
2013-06-20 09:11:00,67.8,66.6,30.28,NW,325,0.0,0.0,96,0.00,OVC,,0.00,WeatherDisplay:10.37,2013-06-20 13:11:00,
2013-06-20 09:16:00,68.1,66.9,30.28,NW,309,0.0,1.2,96,0.00,OVC,,0.00,WeatherDisplay:10.37,2013-06-20 13:16:00,
2013-06-20 09:21:00,68.3,66.8,30.28,NE,49,0.0,0.0,95,0.00,OVC,,0.00,WeatherDisplay:10.37,2013-06-20 13:21:00,
2013-06-20 09:26:00,68.2,66.7,30.28,East,98,0.0,0.0,95,0.00,OVC,,0.00,WeatherDisplay:10.37,2013-06-20 13:26:00,
2013-06-20 09:31:00,68.1,66.3,30.29,SSW,211,0.0,1.2,94,0.00,OVC,,0.00,WeatherDisplay:10.37,2013-06-20 13:31:00,
2013-06-20 09:36:00,68.2,66.4,30.29,NNE,18,0.3,1.2,94,0.00,OVC,,0.00,WeatherDisplay:10.37,2013-06-20 13:36:00,
2013-06-20 09:41:00,68.4,66.6,30.29,NNW,347,0.0,0.0,94,0.00,OVC,,0.00,WeatherDisplay:10.37,2013-06-20 13:41:00,
2013-06-20 09:46:00,68.4,66.6,30.29,NE,37,0.0,0.0,94,0.00,OVC,,0.00,WeatherDisplay:10.37,2013-06-20 13:46:00,
2013-06-20 09:51:00,68.3,66.5,30.29,East,84,0.0,0.0,94,0.00,OVC,,0.00,WeatherDisplay:10.37,2013-06-20 13:51:00,
2013-06-20 09:56:00,68.2,66.1,30.29,North,4,0.0,0.0,93,0.00,OVC,,0.00,WeatherDisplay:10.37,2013-06-20 13:56:00,
2013-06-20 10:01:00,68.3,66.5,30.29,ENE,70,0.1,1.0,94,0.00,OVC,,0.00,WeatherDisplay:10.37,2013-06-20 14:01:00,
2013-06-20 10:06:00,68.4,66.3,30.29,SW,217,0.0,0.0,93,0.00,OVC,,0.00,WeatherDisplay:10.37,2013-06-20 14:06:00,
2013-06-20 10:11:00,68.6,66.8,30.29,NE,49,0.0,1.2,94,0.00,OVC,,0.00,WeatherDisplay:10.37,2013-06-20 14:11:00,
2013-06-20 10:16:00,68.8,66.7,30.29,NNW,328,0.0,1.2,93,0.00,OVC,,0.00,WeatherDisplay:10.37,2013-06-20 14:16:00,
2013-06-20 10:21:00,69.0,66.9,30.29,WNW,283,0.0,0.0,93,0.00,OVC,,0.00,WeatherDisplay:10.37,2013-06-20 14:21:00,
2013-06-20 10:26:00,69.2,66.8,30.29,NNW,333,0.0,0.0,92,0.00,OVC,,0.00,WeatherDisplay:10.37,2013-06-20 14:26:00,
2013-06-20 10:31:00,69.2,66.8,30.29,North,352,0.0,0.0,92,0.00,OVC,,0.00,WeatherDisplay:10.37,2013-06-20 14:31:00,
2013-06-20 10:36:00,69.1,66.7,30.29,East,97,0.0,0.0,92,0.00,OVC,,0.00,WeatherDisplay:10.37,2013-06-20 14:36:00,
2013-06-20 10:41:00,69.0,66.6,30.29,ESE,121,0.0,0.0,92,0.00,OVC,,0.00,WeatherDisplay:10.37,2013-06-20 14:41:00,
2013-06-20 10:46:00,69.0,66.6,30.30,ESE,115,0.0,0.0,92,0.00,OVC,,0.00,WeatherDisplay:10.37,2013-06-20 14:46:00,
2013-06-20 10:51:00,69.1,66.7,30.30,NNW,342,0.1,1.2,92,0.00,OVC,,0.00,WeatherDisplay:10.37,2013-06-20 14:51:00,
2013-06-20 10:56:00,69.2,66.8,30.30,NNE,22,0.0,0.0,92,0.00,OVC,,0.00,WeatherDisplay:10.37,2013-06-20 14:56:00,
2013-06-20 11:01:00,69.4,67.0,30.30,East,79,0.0,0.0,92,0.00,OVC,,0.00,WeatherDisplay:10.37,2013-06-20 15:01:00,
2013-06-20 11:06:00,69.3,66.6,30.30,ENE,68,0.0,1.0,91,0.00,OVC,,0.00,WeatherDisplay:10.37,2013-06-20 15:06:00,
2013-06-20 11:11:00,69.5,67.1,30.30,WNW,295,0.0,0.0,92,0.00,OVC,,0.00,WeatherDisplay:10.37,2013-06-20 15:11:00,
2013-06-20 11:16:00,69.7,66.6,30.30,SE,141,0.0,3.5,90,0.00,OVC,,0.00,WeatherDisplay:10.37,2013-06-20 15:16:00,
2013-06-20 11:21:00,70.5,67.7,30.30,SE,143,0.1,0.0,91,0.00,OVC,,0.00,WeatherDisplay:10.37,2013-06-20 15:21:00,
2013-06-20 11:26:00,71.1,67.4,30.30,NNW,345,0.5,1.2,88,0.00,OVC,,0.00,WeatherDisplay:10.37,2013-06-20 15:26:00,
2013-06-20 11:31:00,71.2,67.1,30.30,East,83,0.0,0.0,87,0.00,OVC,,0.00,WeatherDisplay:10.37,2013-06-20 15:31:00,
2013-06-20 11:36:00,71.6,67.9,30.29,North,10,0.5,2.3,88,0.00,OVC,,0.00,WeatherDisplay:10.37,2013-06-20 15:36:00,
2013-06-20 11:41:00,72.2,68.1,30.30,NW,319,0.2,1.2,87,0.00,OVC,,0.00,WeatherDisplay:10.37,2013-06-20 15:41:00,
2013-06-20 11:46:00,72.6,67.8,30.30,ESE,102,0.8,1.2,85,0.00,OVC,,0.00,WeatherDisplay:10.37,2013-06-20 15:46:00,
2013-06-20 11:51:00,73.0,68.2,30.30,WNW,303,0.4,2.0,85,0.00,OVC,,0.00,WeatherDisplay:10.37,2013-06-20 15:51:00,
2013-06-20 11:56:00,73.7,68.2,30.30,WSW,257,0.5,1.2,83,0.00,OVC,,0.00,WeatherDisplay:10.37,2013-06-20 15:56:00,
2013-06-20 12:01:00,73.9,67.7,30.30,SE,135,0.4,2.3,81,0.00,OVC,,0.00,WeatherDisplay:10.37,2013-06-20 16:01:00,
2013-06-20 12:06:00,74.2,68.7,30.30,WSW,248,0.1,2.3,83,0.00,OVC,,0.00,WeatherDisplay:10.37,2013-06-20 16:06:00,
2013-06-20 12:11:00,74.8,67.8,30.30,SSW,198,0.8,2.0,79,0.00,OVC,,0.00,WeatherDisplay:10.37,2013-06-20 16:11:00,
2013-06-20 12:16:00,75.1,68.5,30.30,WSW,245,0.5,3.0,80,0.00,OVC,,0.00,WeatherDisplay:10.37,2013-06-20 16:16:00,
2013-06-20 12:21:00,75.1,68.5,30.30,SW,214,0.3,2.3,80,0.00,OVC,,0.00,WeatherDisplay:10.37,2013-06-20 16:21:00,
2013-06-20 12:26:00,74.8,68.2,30.30,NW,304,0.3,2.3,80,0.00,OVC,,0.00,WeatherDisplay:10.37,2013-06-20 16:26:00,
2013-06-20 12:31:00,74.4,67.1,30.30,SE,139,2.7,3.5,78,0.00,OVC,,0.00,WeatherDisplay:10.37,2013-06-20 16:31:00,
2013-06-20 12:36:00,74.4,67.1,30.30,East,98,0.7,1.2,78,0.00,OVC,,0.00,WeatherDisplay:10.37,2013-06-20 16:36:00,
2013-06-20 12:41:00,74.4,67.1,30.30,WSW,247,1.5,2.3,78,0.00,OVC,,0.00,WeatherDisplay:10.37,2013-06-20 16:41:00,
2013-06-20 12:46:00,74.5,67.2,30.30,NW,319,0.4,1.2,78,0.00,OVC,,0.00,WeatherDisplay:10.37,2013-06-20 16:46:00,
2013-06-20 12:51:00,74.8,67.5,30.30,SW,233,2.2,3.5,78,0.00,OVC,,0.00,WeatherDisplay:10.37,2013-06-20 16:51:00,
2013-06-20 12:56:00,75.5,68.2,30.30,South,179,0.1,2.3,78,0.00,OVC,,0.00,WeatherDisplay:10.37,2013-06-20 16:56:00,
2013-06-20 13:01:00,75.8,67.7,30.30,WNW,292,1.8,3.5,76,0.00,SCT,,0.00,WeatherDisplay:10.37,2013-06-20 17:01:00,
2013-06-20 13:06:00,76.2,68.8,30.30,SW,236,0.5,1.2,78,0.00,SCT,,0.00,WeatherDisplay:10.37,2013-06-20 17:06:00,
2013-06-20 13:11:00,76.8,68.3,30.30,NE,43,1.4,2.3,75,0.00,SCT,,0.00,WeatherDisplay:10.37,2013-06-20 17:11:00,
2013-06-20 13:16:00,77.1,68.6,30.29,SE,125,1.3,2.3,75,0.00,SCT,,0.00,WeatherDisplay:10.37,2013-06-20 17:16:00,
2013-06-20 13:21:00,78.1,69.1,30.29,South,177,1.3,3.0,74,0.00,SCT,,0.00,WeatherDisplay:10.37,2013-06-20 17:21:00,
2013-06-20 13:26:00,77.9,68.5,30.29,ESE,107,0.7,2.3,73,0.00,SCT,,0.00,WeatherDisplay:10.37,2013-06-20 17:26:00,
2013-06-20 13:31:00,78.6,68.8,30.29,SE,129,0.4,1.2,72,0.00,SCT,,0.00,WeatherDisplay:10.37,2013-06-20 17:31:00,
2013-06-20 13:36:00,78.5,67.9,30.29,WSW,253,0.4,1.2,70,0.00,SCT,,0.00,WeatherDisplay:10.37,2013-06-20 17:36:00,
2013-06-20 13:41:00,78.8,67.3,30.29,NNE,30,1.2,2.3,68,0.00,SCT,,0.00,WeatherDisplay:10.37,2013-06-20 17:41:00,
2013-06-20 13:46:00,78.1,68.3,30.28,SW,224,1.1,1.2,72,0.00,SCT,,0.00,WeatherDisplay:10.37,2013-06-20 17:46:00,
2013-06-20 13:51:00,78.5,68.7,30.28,SSE,150,1.3,4.6,72,0.00,SCT,,0.00,WeatherDisplay:10.37,2013-06-20 17:51:00,
2013-06-20 13:56:00,79.2,68.6,30.28,SSW,199,0.9,2.0,70,0.00,SCT,,0.00,WeatherDisplay:10.37,2013-06-20 17:56:00,
2013-06-20 14:01:00,79.2,68.1,30.28,ESE,120,1.8,5.8,69,0.00,BKN,,0.00,WeatherDisplay:10.37,2013-06-20 18:01:00,
2013-06-20 14:06:00,79.5,68.0,30.28,SSE,152,2.4,4.0,68,0.00,BKN,,0.00,WeatherDisplay:10.37,2013-06-20 18:06:00,
2013-06-20 14:11:00,80.1,69.8,30.28,SE,139,0.9,2.3,71,0.00,BKN,,0.00,WeatherDisplay:10.37,2013-06-20 18:11:00,
2013-06-20 14:16:00,80.3,68.8,30.28,ESE,114,1.0,3.5,68,0.00,BKN,,0.00,WeatherDisplay:10.37,2013-06-20 18:16:00,
2013-06-20 14:21:00,80.2,67.8,30.27,WSW,255,2.2,4.6,66,0.00,BKN,,0.00,WeatherDisplay:10.37,2013-06-20 18:21:00,
2013-06-20 14:26:00,80.2,68.2,30.27,WNW,291,1.3,4.6,67,0.00,BKN,,0.00,WeatherDisplay:10.37,2013-06-20 18:26:00,
2013-06-20 14:31:00,80.1,68.2,30.27,WNW,295,2.7,4.0,67,0.00,BKN,,0.00,WeatherDisplay:10.37,2013-06-20 18:31:00,
2013-06-20 14:36:00,80.5,68.5,30.27,WNW,293,2.3,3.5,67,0.00,BKN,,0.00,WeatherDisplay:10.37,2013-06-20 18:36:00,
2013-06-20 14:41:00,80.3,69.2,30.27,SE,132,2.2,3.5,69,0.00,BKN,,0.00,WeatherDisplay:10.37,2013-06-20 18:41:00,
2013-06-20 14:46:00,80.9,68.9,30.27,SSE,149,0.5,1.2,67,0.00,BKN,,0.00,WeatherDisplay:10.37,2013-06-20 18:46:00,
2013-06-20 14:51:00,81.0,68.6,30.27,NNW,338,0.5,3.5,66,0.00,BKN,,0.00,WeatherDisplay:10.37,2013-06-20 18:51:00,
2013-06-20 14:56:00,81.5,68.6,30.27,SE,141,1.1,3.5,65,0.00,BKN,,0.00,WeatherDisplay:10.37,2013-06-20 18:56:00,
2013-06-20 15:01:00,81.4,68.9,30.27,NW,321,0.8,2.0,66,0.00,BKN,,0.00,WeatherDisplay:10.37,2013-06-20 19:01:00,
2013-06-20 15:06:00,80.2,68.2,30.27,North,10,0.6,2.3,67,0.00,BKN,,0.00,WeatherDisplay:10.37,2013-06-20 19:06:00,
2013-06-20 15:11:00,80.5,69.4,30.27,East,91,0.5,3.5,69,0.00,BKN,,0.00,WeatherDisplay:10.37,2013-06-20 19:11:00,
2013-06-20 15:16:00,80.8,68.8,30.27,SE,146,0.1,3.5,67,0.00,BKN,,0.00,WeatherDisplay:10.37,2013-06-20 19:16:00,
2013-06-20 15:21:00,81.2,69.2,30.27,North,4,0.6,2.3,67,0.00,BKN,,0.00,WeatherDisplay:10.37,2013-06-20 19:21:00,
2013-06-20 15:26:00,81.3,69.7,30.27,SE,127,1.0,3.5,68,0.00,BKN,,0.00,WeatherDisplay:10.37,2013-06-20 19:26:00,
2013-06-20 15:31:00,81.1,68.7,30.26,NNE,26,1.5,2.3,66,0.00,BKN,,0.00,WeatherDisplay:10.37,2013-06-20 19:31:00,
2013-06-20 15:36:00,81.5,69.0,30.26,NW,304,1.2,2.3,66,0.00,BKN,,0.00,WeatherDisplay:10.37,2013-06-20 19:36:00,
2013-06-20 15:41:00,81.8,68.9,30.26,SSE,154,1.2,2.3,65,0.00,BKN,,0.00,WeatherDisplay:10.37,2013-06-20 19:41:00,
2013-06-20 15:46:00,81.6,68.7,30.26,SE,142,0.9,1.2,65,0.00,BKN,,0.00,WeatherDisplay:10.37,2013-06-20 19:46:00,
2013-06-20 15:51:00,80.8,68.4,30.26,NE,39,1.1,3.5,66,0.00,BKN,,0.00,WeatherDisplay:10.37,2013-06-20 19:51:00,
2013-06-20 15:56:00,80.3,68.8,30.26,West,274,0.7,2.0,68,0.00,BKN,,0.00,WeatherDisplay:10.37,2013-06-20 19:56:00,
2013-06-20 16:01:00,80.1,68.6,30.26,South,181,0.7,2.3,68,0.00,SCT,,0.00,WeatherDisplay:10.37,2013-06-20 20:01:00,
2013-06-20 16:06:00,80.6,69.5,30.26,SW,222,0.6,3.5,69,0.00,SCT,,0.00,WeatherDisplay:10.37,2013-06-20 20:06:00,
2013-06-20 16:11:00,81.3,70.2,30.26,West,276,0.9,2.3,69,0.00,SCT,,0.00,WeatherDisplay:10.37,2013-06-20 20:11:00,
2013-06-20 16:16:00,80.9,68.0,30.26,WSW,248,1.8,2.3,65,0.00,SCT,,0.00,WeatherDisplay:10.37,2013-06-20 20:16:00,
2013-06-20 16:21:00,79.4,67.9,30.26,North,357,0.5,2.3,68,0.00,SCT,,0.00,WeatherDisplay:10.37,2013-06-20 20:21:00,
2013-06-20 16:26:00,78.6,67.6,30.25,ENE,58,0.2,1.2,69,0.00,SCT,,0.00,WeatherDisplay:10.37,2013-06-20 20:26:00,
2013-06-20 16:31:00,79.0,67.5,30.25,NE,53,0.6,3.5,68,0.00,SCT,,0.00,WeatherDisplay:10.37,2013-06-20 20:31:00,
2013-06-20 16:36:00,79.3,68.2,30.25,East,99,0.2,1.2,69,0.00,SCT,,0.00,WeatherDisplay:10.37,2013-06-20 20:36:00,
2013-06-20 16:41:00,79.6,68.5,30.25,SSE,164,0.3,1.2,69,0.00,SCT,,0.00,WeatherDisplay:10.37,2013-06-20 20:41:00,
2013-06-20 16:46:00,80.4,68.0,30.25,SSE,148,2.2,5.8,66,0.00,SCT,,0.00,WeatherDisplay:10.37,2013-06-20 20:46:00,
2013-06-20 16:51:00,80.3,68.8,30.25,SE,127,2.2,3.5,68,0.00,SCT,,0.00,WeatherDisplay:10.37,2013-06-20 20:51:00,
2013-06-20 16:56:00,80.3,69.2,30.25,East,84,0.6,1.2,69,0.00,SCT,,0.00,WeatherDisplay:10.37,2013-06-20 20:56:00,
2013-06-20 17:01:00,80.6,68.6,30.25,NNW,327,1.1,2.0,67,0.00,SCT,,0.00,WeatherDisplay:10.37,2013-06-20 21:01:00,
2013-06-20 17:06:00,80.1,68.6,30.25,NW,317,0.5,2.3,68,0.00,SCT,,0.00,WeatherDisplay:10.37,2013-06-20 21:06:00,
2013-06-20 17:11:00,79.8,68.7,30.25,SW,221,0.1,1.0,69,0.00,SCT,,0.00,WeatherDisplay:10.37,2013-06-20 21:11:00,
2013-06-20 17:16:00,79.7,69.0,30.25,ESE,113,1.0,2.3,70,0.00,BKN,,0.00,WeatherDisplay:10.37,2013-06-20 21:16:00,
2013-06-20 17:21:00,79.6,69.0,30.25,ENE,75,0.5,1.2,70,0.00,BKN,,0.00,WeatherDisplay:10.37,2013-06-20 21:21:00,
2013-06-20 17:26:00,79.8,69.1,30.24,NNE,27,0.9,2.3,70,0.00,BKN,,0.00,WeatherDisplay:10.37,2013-06-20 21:26:00,
2013-06-20 17:31:00,80.1,68.6,30.24,NW,307,0.1,1.2,68,0.00,BKN,,0.00,WeatherDisplay:10.37,2013-06-20 21:31:00,
2013-06-20 17:36:00,80.3,68.8,30.24,SSE,164,0.0,3.5,68,0.00,BKN,,0.00,WeatherDisplay:10.37,2013-06-20 21:36:00,
2013-06-20 17:41:00,79.7,67.3,30.24,WNW,288,1.2,3.5,66,0.00,BKN,,0.00,WeatherDisplay:10.37,2013-06-20 21:41:00,
2013-06-20 17:46:00,79.2,68.1,30.24,NNW,327,0.3,1.2,69,0.00,BKN,,0.00,WeatherDisplay:10.37,2013-06-20 21:46:00,
2013-06-20 17:51:00,78.9,68.3,30.24,ESE,117,0.8,1.2,70,0.00,BKN,,0.00,WeatherDisplay:10.37,2013-06-20 21:51:00,
2013-06-20 17:56:00,78.8,68.6,30.24,North,354,0.0,0.0,71,0.00,BKN,,0.00,WeatherDisplay:10.37,2013-06-20 21:56:00,
2013-06-20 18:01:00,79.3,68.2,30.24,North,3,0.6,1.2,69,0.00,FEW,,0.00,WeatherDisplay:10.37,2013-06-20 22:01:00,
2013-06-20 18:06:00,78.9,68.7,30.24,East,100,0.7,1.2,71,0.00,FEW,,0.00,WeatherDisplay:10.37,2013-06-20 22:06:00,
2013-06-20 18:11:00,78.5,67.9,30.24,NW,305,1.4,2.3,70,0.00,FEW,,0.00,WeatherDisplay:10.37,2013-06-20 22:11:00,
2013-06-20 18:16:00,78.1,67.9,30.24,NNW,347,0.1,1.2,71,0.00,FEW,,0.00,WeatherDisplay:10.37,2013-06-20 22:16:00,
2013-06-20 18:21:00,78.4,68.2,30.24,WSW,255,0.5,1.2,71,0.00,FEW,,0.00,WeatherDisplay:10.37,2013-06-20 22:21:00,
2013-06-20 18:26:00,78.5,67.9,30.25,WSW,257,0.2,1.2,70,0.00,FEW,,0.00,WeatherDisplay:10.37,2013-06-20 22:26:00,
2013-06-20 18:31:00,78.6,69.2,30.25,ENE,74,0.0,1.2,73,0.00,FEW,,0.00,WeatherDisplay:10.37,2013-06-20 22:31:00,
2013-06-20 18:36:00,78.8,69.0,30.25,West,264,0.0,1.2,72,0.00,FEW,,0.00,WeatherDisplay:10.37,2013-06-20 22:36:00,
2013-06-20 18:41:00,78.9,69.1,30.25,West,263,0.0,1.2,72,0.00,FEW,,0.00,WeatherDisplay:10.37,2013-06-20 22:41:00,
2013-06-20 18:46:00,78.4,68.6,30.25,SSE,160,0.0,0.0,72,0.00,FEW,,0.00,WeatherDisplay:10.37,2013-06-20 22:46:00,
2013-06-20 18:51:00,78.0,67.8,30.25,WSW,258,0.0,0.0,71,0.00,FEW,,0.00,WeatherDisplay:10.37,2013-06-20 22:51:00,
2013-06-20 18:56:00,78.0,68.2,30.25,WSW,257,0.0,0.0,72,0.00,FEW,,0.00,WeatherDisplay:10.37,2013-06-20 22:56:00,
2013-06-20 19:01:00,78.4,68.6,30.25,WSW,257,0.0,1.2,72,0.00,FEW,,0.00,WeatherDisplay:10.37,2013-06-20 23:01:00,
2013-06-20 19:06:00,78.3,68.9,30.25,WNW,302,0.1,0.0,73,0.00,FEW,,0.00,WeatherDisplay:10.37,2013-06-20 23:06:00,
2013-06-20 19:11:00,78.0,68.2,30.25,WNW,302,0.0,0.0,72,0.00,FEW,,0.00,WeatherDisplay:10.37,2013-06-20 23:11:00,
2013-06-20 19:16:00,78.2,68.4,30.25,NW,316,0.0,0.0,72,0.00,FEW,,0.00,WeatherDisplay:10.37,2013-06-20 23:16:00,
2013-06-20 19:21:00,79.0,68.8,30.25,NW,315,0.0,0.0,71,0.00,FEW,,0.00,WeatherDisplay:10.37,2013-06-20 23:21:00,
2013-06-20 19:26:00,79.4,68.8,30.25,West,263,0.0,0.0,70,0.00,FEW,,0.00,WeatherDisplay:10.37,2013-06-20 23:26:00,
2013-06-20 19:31:00,79.1,68.5,30.25,NNW,328,0.0,1.2,70,0.00,FEW,,0.00,WeatherDisplay:10.37,2013-06-20 23:31:00,
2013-06-20 19:36:00,78.5,68.3,30.25,NNW,327,0.0,1.2,71,0.00,FEW,,0.00,WeatherDisplay:10.37,2013-06-20 23:36:00,
2013-06-20 19:41:00,78.0,67.8,30.25,WNW,283,0.0,1.2,71,0.00,FEW,,0.00,WeatherDisplay:10.37,2013-06-20 23:41:00,
2013-06-20 19:46:00,77.5,68.2,30.25,WNW,293,0.3,0.0,73,0.00,FEW,,0.00,WeatherDisplay:10.37,2013-06-20 23:46:00,
2013-06-20 19:51:00,76.8,67.9,30.25,WNW,293,0.0,0.0,74,0.00,FEW,,0.00,WeatherDisplay:10.37,2013-06-20 23:51:00,
2013-06-20 19:56:00,76.3,67.4,30.26,WNW,292,0.0,0.0,74,0.00,FEW,,0.00,WeatherDisplay:10.37,2013-06-20 23:56:00,
2013-06-20 20:01:00,75.9,67.8,30.26,WNW,293,0.0,0.0,76,0.00,FEW,,0.00,WeatherDisplay:10.37,2013-06-21 00:01:00,
2013-06-20 20:06:00,75.7,67.6,30.26,WNW,293,0.0,1.0,76,0.00,FEW,,0.00,WeatherDisplay:10.37,2013-06-21 00:06:00,
2013-06-20 20:11:00,75.1,67.4,30.26,WNW,293,0.0,0.0,77,0.00,FEW,,0.00,WeatherDisplay:10.37,2013-06-21 00:11:00,
2013-06-20 20:16:00,74.8,67.5,30.26,WNW,286,0.0,0.0,78,0.00,FEW,,0.00,WeatherDisplay:10.37,2013-06-21 00:16:00,
2013-06-20 20:21:00,74.4,67.5,30.26,WNW,287,0.0,0.0,79,0.00,FEW,,0.00,WeatherDisplay:10.37,2013-06-21 00:21:00,
2013-06-20 20:26:00,74.0,67.1,30.26,WNW,287,0.0,0.0,79,0.00,FEW,,0.00,WeatherDisplay:10.37,2013-06-21 00:26:00,
2013-06-20 20:31:00,73.8,67.2,30.26,WNW,287,0.0,0.0,80,0.00,FEW,,0.00,WeatherDisplay:10.37,2013-06-21 00:31:00,
2013-06-20 20:36:00,73.4,67.2,30.26,WNW,287,0.0,0.0,81,0.00,FEW,,0.00,WeatherDisplay:10.37,2013-06-21 00:36:00,
2013-06-20 20:41:00,72.9,67.1,30.26,WNW,286,0.0,0.0,82,0.00,FEW,,0.00,WeatherDisplay:10.37,2013-06-21 00:41:00,
2013-06-20 20:46:00,72.4,66.9,30.26,WNW,286,0.0,0.0,83,0.00,FEW,,0.00,WeatherDisplay:10.37,2013-06-21 00:46:00,
2013-06-20 20:51:00,71.9,66.8,30.26,WNW,287,0.0,0.0,84,0.00,FEW,,0.00,WeatherDisplay:10.37,2013-06-21 00:51:00,
2013-06-20 20:56:00,71.2,66.5,30.26,WNW,287,0.0,0.0,85,0.00,FEW,,0.00,WeatherDisplay:10.37,2013-06-21 00:56:00,
2013-06-20 21:01:00,70.8,66.1,30.26,WNW,287,0.0,0.0,85,0.00,FEW,,0.00,WeatherDisplay:10.37,2013-06-21 01:01:00,
2013-06-20 21:06:00,70.7,66.0,30.26,WNW,287,0.0,0.0,85,0.00,FEW,,0.00,WeatherDisplay:10.37,2013-06-21 01:06:00,
2013-06-20 21:11:00,70.6,65.5,30.26,WNW,287,0.0,0.0,84,0.00,FEW,,0.00,WeatherDisplay:10.37,2013-06-21 01:11:00,
2013-06-20 21:16:00,70.5,66.1,30.26,WNW,287,0.0,0.0,86,0.00,FEW,,0.00,WeatherDisplay:10.37,2013-06-21 01:16:00,
2013-06-20 21:21:00,70.2,66.1,30.27,WNW,286,0.0,0.0,87,0.00,FEW,,0.00,WeatherDisplay:10.37,2013-06-21 01:21:00,
2013-06-20 21:26:00,69.9,66.2,30.27,WNW,286,0.0,0.0,88,0.00,FEW,,0.00,WeatherDisplay:10.37,2013-06-21 01:26:00,
2013-06-20 21:31:00,69.7,66.3,30.27,WNW,287,0.0,0.0,89,0.00,FEW,,0.00,WeatherDisplay:10.37,2013-06-21 01:31:00,
2013-06-20 21:36:00,69.5,66.1,30.27,WNW,287,0.0,1.2,89,0.00,FEW,,0.00,WeatherDisplay:10.37,2013-06-21 01:36:00,
2013-06-20 21:41:00,69.2,66.1,30.27,WNW,286,0.0,1.2,90,0.00,FEW,,0.00,WeatherDisplay:10.37,2013-06-21 01:41:00,
2013-06-20 21:46:00,68.8,65.4,30.27,WNW,287,0.0,0.0,89,0.00,FEW,,0.00,WeatherDisplay:10.37,2013-06-21 01:46:00,
2013-06-20 21:51:00,68.6,65.5,30.27,WNW,286,0.0,0.0,90,0.00,FEW,,0.00,WeatherDisplay:10.37,2013-06-21 01:51:00,
2013-06-20 21:56:00,68.4,65.7,30.27,WNW,286,0.0,0.0,91,0.00,FEW,,0.00,WeatherDisplay:10.37,2013-06-21 01:56:00,
2013-06-20 22:01:00,68.2,65.8,30.28,WNW,287,0.0,0.0,92,0.00,BKN,,0.00,WeatherDisplay:10.37,2013-06-21 02:01:00,
2013-06-20 22:06:00,68.1,65.4,30.28,WNW,286,0.0,0.0,91,0.00,BKN,,0.00,WeatherDisplay:10.37,2013-06-21 02:06:00,
2013-06-20 22:11:00,67.8,65.4,30.28,WNW,287,0.0,0.0,92,0.00,BKN,,0.00,WeatherDisplay:10.37,2013-06-21 02:11:00,
2013-06-20 22:16:00,67.6,65.2,30.28,WNW,287,0.0,0.0,92,0.00,BKN,,0.00,WeatherDisplay:10.37,2013-06-21 02:16:00,
2013-06-20 22:21:00,67.5,65.4,30.28,WNW,287,0.0,0.0,93,0.00,BKN,,0.00,WeatherDisplay:10.37,2013-06-21 02:21:00,
2013-06-20 22:26:00,67.5,65.4,30.28,WNW,287,0.0,0.0,93,0.00,BKN,,0.00,WeatherDisplay:10.37,2013-06-21 02:26:00,
2013-06-20 22:31:00,67.5,65.4,30.28,WNW,286,0.0,0.0,93,0.00,BKN,,0.00,WeatherDisplay:10.37,2013-06-21 02:31:00,
2013-06-20 22:36:00,67.4,65.3,30.28,WNW,286,0.0,0.0,93,0.00,BKN,,0.00,WeatherDisplay:10.37,2013-06-21 02:36:00,
2013-06-20 22:41:00,67.4,65.3,30.29,WNW,287,0.0,0.0,93,0.00,BKN,,0.00,WeatherDisplay:10.37,2013-06-21 02:41:00,
2013-06-20 22:46:00,67.3,65.2,30.29,WNW,286,0.0,0.0,93,0.00,BKN,,0.00,WeatherDisplay:10.37,2013-06-21 02:46:00,
2013-06-20 22:51:00,67.4,65.6,30.29,WNW,286,0.0,0.0,94,0.00,BKN,,0.00,WeatherDisplay:10.37,2013-06-21 02:51:00,
2013-06-20 22:56:00,67.4,65.6,30.29,WNW,287,0.0,0.0,94,0.00,BKN,,0.00,WeatherDisplay:10.37,2013-06-21 02:56:00,
2013-06-20 23:01:00,67.3,65.5,30.29,WNW,287,0.0,0.0,94,0.00,OVC,,0.00,WeatherDisplay:10.37,2013-06-21 03:01:00,
2013-06-20 23:06:00,67.3,65.5,30.29,WNW,286,0.0,0.0,94,0.00,OVC,,0.00,WeatherDisplay:10.37,2013-06-21 03:06:00,
2013-06-20 23:11:00,67.2,65.4,30.29,West,262,0.1,1.2,94,0.00,OVC,,0.00,WeatherDisplay:10.37,2013-06-21 03:11:00,
2013-06-20 23:16:00,67.2,65.4,30.29,West,262,0.0,0.0,94,0.00,OVC,,0.00,WeatherDisplay:10.37,2013-06-21 03:16:00,
2013-06-20 23:21:00,67.3,65.5,30.29,West,262,0.0,0.0,94,0.00,OVC,,0.00,WeatherDisplay:10.37,2013-06-21 03:21:00,
2013-06-20 23:26:00,67.4,65.3,30.29,West,262,0.0,0.0,93,0.00,OVC,,0.00,WeatherDisplay:10.37,2013-06-21 03:26:00,
2013-06-20 23:31:00,67.4,65.3,30.29,West,262,0.0,1.2,93,0.00,OVC,,0.00,WeatherDisplay:10.37,2013-06-21 03:31:00,
2013-06-20 23:36:00,67.3,65.2,30.28,West,262,0.0,0.0,93,0.00,OVC,,0.00,WeatherDisplay:10.37,2013-06-21 03:36:00,
2013-06-20 23:41:00,67.3,65.2,30.28,West,262,0.0,0.0,93,0.00,OVC,,0.00,WeatherDisplay:10.37,2013-06-21 03:41:00,
2013-06-20 23:46:00,67.2,65.1,30.29,West,262,0.0,0.0,93,0.00,OVC,,0.00,WeatherDisplay:10.37,2013-06-21 03:46:00,
2013-06-20 23:51:00,67.1,65.0,30.29,West,262,0.0,0.0,93,0.00,OVC,,0.00,WeatherDisplay:10.37,2013-06-21 03:51:00,
2013-06-20 23:56:00,67.0,64.9,30.29,West,262,0.0,0.0,93,0.00,OVC,,0.00,WeatherDisplay:10.37,2013-06-21 03:56:00,